Simultaneous Nadir Overpasses (SNOs) Predictions

Prediction of SNOs between LANDSAT-8 and NPP Satellite Orbit:

Table of predicted SNOs for the next 14.0 days since TLE Epoch: 2/18/2017
Index Date (LANDSAT-8) Time (LANDSAT-8) Lat,Lon (LANDSAT-8) SZA (LANDSAT-8 ) Date (NPP) Time (NPP) Lat,Lon (NPP) SZA (NPP ) Distance(km) Time Diff (sec)
1 02/20/2017 14:41:49 -70.16, 136.01 99.10 02/20/2017 14:40:56 -70.17, 135.96 99.08 1.82 53
2 02/20/2017 15:31:16 70.06, -56.49 80.79 02/20/2017 15:31:40 70.04, -56.53 80.77 2.89 24
3 02/20/2017 16:21:00 -69.18, 109.94 100.05 02/20/2017 16:22:07 -69.17, 112.05 100.16 83.42 67
4 02/23/2017 06:58:18 -70.12,-108.18 100.12 02/23/2017 06:57:49 -70.14,-108.22 100.09 3.05 29
5 02/23/2017 07:47:45 70.01, 59.32 79.77 02/23/2017 07:48:33 70.02, 59.28 79.77 1.65 48
6 02/25/2017 22:25:15 70.28,-159.69 79.06 02/25/2017 22:24:02 70.31,-160.02 79.11 12.41 73
7 02/25/2017 23:14:47 -70.07, 7.63 101.17 02/25/2017 23:14:41 -70.06, 7.68 101.17 1.82 6
8 02/26/2017 00:04:14 69.96, 175.12 78.72 02/26/2017 00:05:25 69.94, 175.17 78.70 2.24 71
9 02/28/2017 14:41:45 70.17, -43.98 77.94 02/28/2017 14:40:53 70.18, -44.05 77.96 3.02 52
10 02/28/2017 15:31:15 -70.06, 123.51 102.18 02/28/2017 15:31:34 -70.04, 123.49 102.21 2.65 19
11 02/28/2017 16:20:57 69.12, -70.12 76.93 02/28/2017 16:22:03 69.13, -67.88 76.83 89.03 66
12 03/03/2017 06:58:13 70.10, 71.81 76.85 03/03/2017 06:57:44 70.12, 71.84 76.86 1.50 29
13 03/03/2017 07:47:43 -70.00,-120.70
